DLH1786 LIMC-EDDM

Flight info

Callsign DLH1786
Flight time 0h 47m
Altitude 18000
Route OSKOR M985 TAGIP T876 GUNGO Y246 TISAX T102 IVKAL/N0414F240 T102 NINUR T101 BETOS BETOS1A
Aircraft A20N/M-SDE2E3FGHIRWXY/LB1

Departure

Time 2026-04-30 12:57
Airport Milan Malpensa International Airport (LIMC)

Arrival

Time 2026-04-30 13:44
Airport Munich Airport (EDDM)
Time Latitude Longitude Altitude Speed Heading
2026-04-30 12:25 45.63117 8.71588 747 ft 0 kts 246°
2026-04-30 12:41 45.63120 8.71597 746 ft 2 kts 245°
2026-04-30 12:42 45.63126 8.71619 747 ft 2 kts 246°
2026-04-30 12:42 45.63133 8.71640 746 ft 2 kts 245°
2026-04-30 12:42 45.63140 8.71661 746 ft 2 kts 244°
2026-04-30 12:42 45.63148 8.71682 743 ft 2 kts 236°
2026-04-30 12:43 45.63161 8.71690 746 ft 2 kts 169°
2026-04-30 12:43 45.63167 8.71689 746 ft 0 kts 169°
2026-04-30 12:44 45.63160 8.71691 746 ft 2 kts 169°
2026-04-30 12:45 45.63131 8.71699 747 ft 7 kts 169°
2026-04-30 12:45 45.63066 8.71716 745 ft 12 kts 169°
2026-04-30 12:45 45.62980 8.71758 744 ft 13 kts 126°
2026-04-30 12:45 45.62982 8.71876 745 ft 12 kts 80°
2026-04-30 12:46 45.62939 8.71951 744 ft 11 kts 166°
2026-04-30 12:46 45.62840 8.71980 742 ft 18 kts 169°
2026-04-30 12:46 45.62700 8.72019 739 ft 23 kts 169°
2026-04-30 12:46 45.62537 8.72064 734 ft 25 kts 169°
2026-04-30 12:47 45.62363 8.72112 731 ft 26 kts 169°
2026-04-30 12:47 45.62179 8.72162 729 ft 28 kts 168°
2026-04-30 12:47 45.61984 8.72216 725 ft 29 kts 169°
2026-04-30 12:47 45.61794 8.72269 722 ft 28 kts 169°
2026-04-30 12:48 45.61596 8.72323 722 ft 30 kts 169°
2026-04-30 12:48 45.61447 8.72365 716 ft 7 kts 169°
2026-04-30 12:48 45.61398 8.72335 717 ft 10 kts 243°
2026-04-30 12:48 45.61376 8.72228 716 ft 12 kts 246°
2026-04-30 12:49 45.61305 8.72203 714 ft 15 kts 170°
2026-04-30 12:49 45.61173 8.72240 714 ft 24 kts 169°
2026-04-30 12:49 45.61005 8.72286 706 ft 25 kts 169°
2026-04-30 12:49 45.60830 8.72335 702 ft 26 kts 169°
2026-04-30 12:50 45.60692 8.72378 700 ft 17 kts 156°
2026-04-30 12:50 45.60637 8.72513 698 ft 16 kts 96°
2026-04-30 12:50 45.60625 8.72677 698 ft 17 kts 96°
2026-04-30 12:50 45.60612 8.72852 706 ft 18 kts 96°
2026-04-30 12:51 45.60599 8.73026 707 ft 18 kts 96°
2026-04-30 12:51 45.60595 8.73206 702 ft 18 kts 71°
2026-04-30 12:51 45.60687 8.73306 704 ft 17 kts 22°
2026-04-30 12:51 45.60796 8.73367 701 ft 17 kts 22°
2026-04-30 12:52 45.60908 8.73407 706 ft 17 kts 353°
2026-04-30 12:52 45.60946 8.73398 704 ft 0 kts 349°
2026-04-30 12:52 45.60948 8.73397 703 ft 3 kts 349°
2026-04-30 12:53 45.61002 8.73382 706 ft 13 kts 349°
2026-04-30 12:53 45.61120 8.73347 704 ft 21 kts 348°
2026-04-30 12:53 45.61277 8.73306 706 ft 23 kts 349°
2026-04-30 12:53 45.61431 8.73262 712 ft 22 kts 349°
2026-04-30 12:54 45.61565 8.73226 713 ft 10 kts 353°
2026-04-30 12:54 45.61613 8.73266 712 ft 9 kts 64°
2026-04-30 12:54 45.61630 8.73360 711 ft 11 kts 79°
2026-04-30 12:54 45.61620 8.73467 710 ft 12 kts 118°
2026-04-30 12:55 45.61588 8.73564 703 ft 0 kts 102°
2026-04-30 12:55 45.61589 8.73627 707 ft 12 kts 82°
2026-04-30 12:55 45.61646 8.73728 706 ft 13 kts
2026-04-30 12:56 45.61800 8.73687 716 ft 50 kts 349°
2026-04-30 12:56 45.62353 8.73536 726 ft 112 kts 349°
2026-04-30 12:56 45.63313 8.73271 745 ft 166 kts 351°
2026-04-30 12:56 45.64477 8.72936 1165 ft 174 kts 349°
2026-04-30 12:57 45.65634 8.72901 1901 ft 163 kts 22°
2026-04-30 12:57 45.66514 8.73872 2505 ft 165 kts 48°
2026-04-30 12:57 45.67319 8.75228 2960 ft 191 kts 52°
2026-04-30 12:57 45.68190 8.76729 3609 ft 200 kts 51°
2026-04-30 12:58 45.69104 8.78248 4324 ft 203 kts 50°
2026-04-30 12:58 45.70045 8.79772 5017 ft 206 kts 49°
2026-04-30 12:58 45.71008 8.81309 5650 ft 209 kts 49°
2026-04-30 12:58 45.71852 8.83023 6220 ft 217 kts 64°
2026-04-30 12:59 45.72103 8.85191 6648 ft 231 kts 96°
2026-04-30 12:59 45.71419 8.87304 7095 ft 245 kts 134°
2026-04-30 12:59 45.69936 8.88507 7809 ft 250 kts 165°
2026-04-30 12:59 45.68221 8.89000 8679 ft 252 kts 171°
2026-04-30 13:00 45.66480 8.89368 9531 ft 255 kts 172°
2026-04-30 13:00 45.64711 8.89737 10332 ft 259 kts 171°
2026-04-30 13:00 45.62910 8.90126 11048 ft 264 kts 171°
2026-04-30 13:00 45.61072 8.90537 11781 ft 269 kts 171°
2026-04-30 13:01 45.59193 8.90904 12468 ft 278 kts 170°
2026-04-30 13:01 45.57311 8.91850 12799 ft 298 kts 147°
2026-04-30 13:01 45.55801 8.93960 13084 ft 315 kts 117°
2026-04-30 13:01 45.55157 8.96993 13394 ft 330 kts 91°
2026-04-30 13:02 45.55302 9.00323 13727 ft 345 kts 77°
2026-04-30 13:02 45.55889 9.03737 14057 ft 362 kts 71°
2026-04-30 13:02 45.56670 9.07210 14516 ft 372 kts 69°
2026-04-30 13:02 45.57488 9.10744 15140 ft 377 kts 70°
2026-04-30 13:03 45.58275 9.14336 15840 ft 381 kts 71°
2026-04-30 13:03 45.59017 9.17990 16535 ft 385 kts 72°
2026-04-30 13:03 45.59719 9.21696 17225 ft 389 kts 73°
2026-04-30 13:03 45.60399 9.25452 17897 ft 391 kts 73°
2026-04-30 13:04 45.61063 9.29221 18227 ft 392 kts 73°
2026-04-30 13:04 45.61719 9.32998 18292 ft 393 kts 73°
2026-04-30 13:04 45.62378 9.36795 18290 ft 394 kts 73°
2026-04-30 13:04 45.63029 9.40547 18190 ft 395 kts 73°
2026-04-30 13:05 45.63690 9.44354 18189 ft 395 kts 73°
2026-04-30 13:05 45.64351 9.48159 18185 ft 395 kts 73°
2026-04-30 13:05 45.65014 9.51971 18187 ft 395 kts 73°
2026-04-30 13:06 45.66337 9.59591 18292 ft 394 kts 73°
2026-04-30 13:06 45.66996 9.63396 18293 ft 395 kts 73°
2026-04-30 13:06 45.67654 9.67202 18292 ft 394 kts 73°
2026-04-30 13:06 45.68310 9.71013 18293 ft 394 kts 73°
2026-04-30 13:07 45.68965 9.74822 18292 ft 395 kts 73°
2026-04-30 13:07 45.69619 9.78636 18292 ft 395 kts 73°
2026-04-30 13:07 45.70273 9.82450 18289 ft 395 kts 73°
2026-04-30 13:07 45.70925 9.86267 18296 ft 395 kts 73°
2026-04-30 13:08 45.71577 9.90091 18304 ft 395 kts 73°
2026-04-30 13:08 45.72225 9.93909 18306 ft 395 kts 73°
2026-04-30 13:08 45.72872 9.97732 18298 ft 395 kts 73°
2026-04-30 13:08 45.73519 10.01550 18304 ft 394 kts 73°
2026-04-30 13:09 45.74163 10.05363 18305 ft 393 kts 73°
2026-04-30 13:09 45.74803 10.09167 18297 ft 393 kts 73°
2026-04-30 13:09 45.75441 10.12966 18278 ft 392 kts 73°
2026-04-30 13:09 45.76080 10.16767 18279 ft 393 kts 73°
2026-04-30 13:10 45.76716 10.20577 18288 ft 393 kts 74°
2026-04-30 13:10 45.77351 10.24384 18291 ft 393 kts 73°
2026-04-30 13:10 45.77772 10.26903 18314 ft 393 kts 73°
2026-04-30 13:10 45.78406 10.30713 18301 ft 393 kts 73°
2026-04-30 13:11 45.79039 10.34525 18293 ft 393 kts 73°
2026-04-30 13:11 45.79672 10.38337 18299 ft 393 kts 73°
2026-04-30 13:11 45.80550 10.42024 18293 ft 390 kts 63°
2026-04-30 13:11 45.81840 10.45429 18290 ft 388 kts 57°
2026-04-30 13:12 45.83279 10.48693 18294 ft 387 kts 54°
2026-04-30 13:12 45.84805 10.51878 18294 ft 387 kts 52°
2026-04-30 13:12 45.86371 10.55017 18298 ft 387 kts 52°
2026-04-30 13:13 45.89520 10.61258 18276 ft 385 kts 52°
2026-04-30 13:13 45.91078 10.64372 18278 ft 384 kts 52°
2026-04-30 13:13 45.94799 10.69768 18274 ft 380 kts 34°
2026-04-30 13:14 45.97015 10.71838 18272 ft 380 kts 30°
2026-04-30 13:14 45.99307 10.73732 18254 ft 379 kts 28°
2026-04-30 13:14 46.03969 10.77276 18263 ft 379 kts 27°
2026-04-30 13:15 46.06313 10.79023 18254 ft 378 kts 27°
2026-04-30 13:15 46.10964 10.82535 18255 ft 376 kts 27°
2026-04-30 13:15 46.13247 10.84283 18256 ft 377 kts 27°
2026-04-30 13:16 46.15588 10.86095 18254 ft 377 kts 27°
2026-04-30 13:16 46.17896 10.87882 18253 ft 376 kts 27°
2026-04-30 13:16 46.20208 10.89670 18262 ft 377 kts 27°
2026-04-30 13:17 46.24829 10.93249 18262 ft 377 kts 27°
2026-04-30 13:17 46.27140 10.95040 18261 ft 377 kts 27°
2026-04-30 13:17 46.31758 10.98627 18261 ft 377 kts 28°
2026-04-30 13:18 46.34037 11.00403 18265 ft 377 kts 27°
2026-04-30 13:18 46.38653 11.04000 18264 ft 376 kts 27°
2026-04-30 13:18 46.41063 11.05473 18232 ft 377 kts 17°
2026-04-30 13:19 46.43631 11.06222 18230 ft 377 kts
2026-04-30 13:19 46.46244 11.06545 18218 ft 377 kts
2026-04-30 13:19 46.48868 11.06657 18223 ft 377 kts
2026-04-30 13:19 46.51500 11.06660 18220 ft 378 kts
2026-04-30 13:20 46.54129 11.06618 18219 ft 378 kts
2026-04-30 13:20 46.56757 11.06571 18227 ft 377 kts
2026-04-30 13:20 46.59384 11.06534 18216 ft 377 kts
2026-04-30 13:20 46.62011 11.06512 18221 ft 378 kts
2026-04-30 13:21 46.64632 11.06339 18227 ft 378 kts 357°
2026-04-30 13:21 46.67253 11.05977 18218 ft 378 kts 356°
2026-04-30 13:21 46.69873 11.05547 18213 ft 378 kts 355°
2026-04-30 13:22 46.75114 11.04581 18227 ft 379 kts 354°
2026-04-30 13:22 46.77692 11.04090 18203 ft 379 kts 354°
2026-04-30 13:22 46.82960 11.03083 18224 ft 380 kts 354°
2026-04-30 13:23 46.85549 11.02583 18213 ft 381 kts 354°
2026-04-30 13:23 46.90804 11.01577 18232 ft 380 kts 354°
2026-04-30 13:24 46.96061 11.01226 18216 ft 378 kts
2026-04-30 13:24 47.01298 11.01810 18229 ft 376 kts
2026-04-30 13:25 47.06495 11.02615 18232 ft 376 kts
2026-04-30 13:25 47.11714 11.03448 18221 ft 377 kts
2026-04-30 13:26 47.19558 11.04670 18235 ft 377 kts
2026-04-30 13:26 47.24777 11.05457 18217 ft 378 kts
2026-04-30 13:27 47.30016 11.06252 18238 ft 378 kts
2026-04-30 13:28 47.37860 11.07461 18250 ft 377 kts
2026-04-30 13:28 47.43083 11.08267 18237 ft 378 kts
2026-04-30 13:28 47.45668 11.08666 18259 ft 378 kts
2026-04-30 13:29 47.50910 11.09475 18257 ft 378 kts
2026-04-30 13:29 47.56090 11.10695 18274 ft 376 kts 19°
2026-04-30 13:30 47.63125 11.15782 18285 ft 375 kts 30°
2026-04-30 13:31 47.67613 11.19735 17878 ft 375 kts 31°
2026-04-30 13:31 47.74479 11.25382 15662 ft 376 kts 22°
2026-04-30 13:32 47.79721 11.26705 14452 ft 388 kts
2026-04-30 13:32 47.85090 11.27002 13294 ft 382 kts
2026-04-30 13:33 47.90378 11.27296 12323 ft 379 kts
2026-04-30 13:33 47.95568 11.27525 11369 ft 364 kts
2026-04-30 13:34 47.98065 11.27663 10910 ft 355 kts
2026-04-30 13:34 48.05110 11.28011 10015 ft 320 kts
2026-04-30 13:35 48.07268 11.28120 9776 ft 301 kts
2026-04-30 13:35 48.11254 11.28221 8957 ft 280 kts
2026-04-30 13:36 48.15131 11.28236 7785 ft 276 kts
2026-04-30 13:36 48.17052 11.28209 7231 ft 275 kts
2026-04-30 13:36 48.20862 11.28171 6065 ft 272 kts
2026-04-30 13:37 48.22740 11.28130 5551 ft 267 kts
2026-04-30 13:37 48.25967 11.29965 4446 ft 246 kts 48°
2026-04-30 13:38 48.28116 11.33803 3951 ft 233 kts 54°
2026-04-30 13:38 48.29100 11.35635 3958 ft 218 kts 53°
2026-04-30 13:38 48.30832 11.39038 3955 ft 193 kts 64°
2026-04-30 13:39 48.31566 11.42857 3977 ft 194 kts 82°
2026-04-30 13:39 48.31885 11.46913 3973 ft 196 kts 83°
2026-04-30 13:40 48.32039 11.48944 3986 ft 195 kts 82°
2026-04-30 13:40 48.32197 11.50969 3989 ft 195 kts 83°
2026-04-30 13:40 48.32354 11.52978 3983 ft 194 kts 83°
2026-04-30 13:40 48.32512 11.54992 3983 ft 194 kts 82°
2026-04-30 13:41 48.32672 11.57005 3973 ft 195 kts 82°
2026-04-30 13:41 48.32830 11.59034 3750 ft 196 kts 83°
2026-04-30 13:41 48.32985 11.61052 3489 ft 192 kts 83°
2026-04-30 13:41 48.33137 11.63027 3190 ft 189 kts 83°
2026-04-30 13:42 48.33285 11.64949 2939 ft 179 kts 83°
2026-04-30 13:42 48.33426 11.66779 2682 ft 174 kts 84°
2026-04-30 13:42 48.33688 11.70179 2221 ft 155 kts 83°
2026-04-30 13:43 48.33813 11.71786 1982 ft 155 kts 82°
2026-04-30 13:43 48.33936 11.73383 1747 ft 150 kts 83°
2026-04-30 13:43 48.34060 11.74960 1561 ft 153 kts 84°
2026-04-30 13:43 48.34176 11.76494 1481 ft 132 kts 84°
2026-04-30 13:44 48.34260 11.77602 1479 ft 80 kts 83°
2026-04-30 13:44 48.34305 11.78174 1485 ft 39 kts 84°
2026-04-30 13:44 48.34336 11.78577 1475 ft 38 kts 83°
2026-04-30 13:44 48.34375 11.78970 1485 ft 38 kts 72°
2026-04-30 13:45 48.34595 11.79483 1473 ft 0 kts 53°
2026-04-30 13:48 48.34609 11.79510 1482 ft 8 kts 49°
2026-04-30 13:48 48.34676 11.79558 1484 ft 12 kts
2026-04-30 13:48 48.34759 11.79551 1475 ft 12 kts
2026-04-30 13:48 48.34810 11.79560 1481 ft 0 kts
2026-04-30 13:49 48.34820 11.79561 1488 ft 6 kts
2026-04-30 13:49 48.34895 11.79552 1483 ft 13 kts 353°
2026-04-30 13:49 48.34988 11.79534 1480 ft 11 kts 353°
2026-04-30 13:49 48.35026 11.79506 1485 ft 3 kts 285°
2026-04-30 13:50 48.35022 11.79460 1482 ft 8 kts 263°
2026-04-30 13:50 48.35015 11.79372 1486 ft 0 kts 264°